sat.trackr.live / text

‹ back to catalog

ONEWEB-0008

NORAD 44059 · 2019-010C

PAYLOAD ACTIVE UNKNOWN

§ Identity

Operator
Country
UK
Launch date
2019-02-27
Launch site
FRGUI
Launch vehicle
Mass (kg)
RCS (m²)

Purposes: comms

External: N2YO · Heavens-Above · Gunter

§ Orbital elements

Epoch: 2026-05-24T23:20:48.412320Z

Period
109.37 min
Inclination
87.9104°
Eccentricity
0.0002155
Mean motion
13.16594397 rev/d
Perigee alt
1,196.1 km
Apogee alt
1,199.4 km
Semi-major
7,575.9 km
B*
-2.1928e-4
RAAN
233.3856°
Arg perigee
106.9879°
Mean anomaly
253.1488°
Rev number
34,867

§ Raw data

ONEWEB-00081 44059U 19010C   26144.97278255 -.00000071  00000+0 -21928-3 0  99992 44059  87.9104 233.3856 0002155 106.9879 253.1488 13.16594397348673

JSON: /api/v1/satellites/44059 · /tle

For live sub-satellite position, see the globe view (requires WebGL).

§ Visibility from observer

Set your observer location to see the next 7 days of passes ≥ 10°. The values pass through the URL so the page stays shareable.

No JS? Fill the form by hand. The geolocation button needs JavaScript.